Skip Page Navigation
NASA JPL Caltech
NASA Logo - Jet Propulsion Laboratory + View the NASA Portal
+ Near-Earth Object (NEO) Program
Search JPL
JPL Home Earth Solar System Stars & Galaxies Technology
JPL Solar System Dynamics
BODIES ORBITS EPHEMERIDES TOOLS PHYSICAL DATA DISCOVERY FAQ SITE MAP
JPL Small-Body Database Browser
Search: [ help ]  
5867 (1988 RE)
Classification: Mars-crossing Asteroid          SPK-ID: 2005867
Ephemeris | Orbit Diagram | Orbital Elements | Physical Parameters | Discovery Circumstances ]

[ show orbit diagram ]
Orbital Elements at Epoch 2456800.5 (2014-May-23.0) TDB
Reference: JPL 3 (heliocentric ecliptic J2000)
 Element Value Uncertainty (1-sigma)   Units 
e .252142484139724 7.8611e-08  
a 1.821319954653642 8.8132e-09 AU
q 1.362087816874024 1.4295e-07 AU
i 35.06515979356864 1.2059e-05 deg
node 202.1703894989445 1.44e-05 deg
peri 105.569841762127 2.7467e-05 deg
M 198.4304621801576 1.745e-05 deg
tp 2457203.434800043835
(2015-Jun-29.93480004)
4.3974e-05 JED
period 897.796267620232
2.46
6.5165e-06
1.784e-08
d
yr
n .4009818407401534 2.9105e-09 deg/d
Q 2.280552092433261 1.1035e-08 AU
  Orbit Determination Parameters
   # obs. used (total)      504  
   data-arc span      12406 days (33.97 yr)  
   first obs. used      1980-01-22  
   last obs. used      2014-01-09  
   planetary ephem.      DE431  
   SB-pert. ephem.      SB431-BIG16  
   condition code      0  
   fit RMS      .58491  
   data source      ORB  
   producer      Otto Matic  
   solution date      2014-Jun-09 18:16:40  

Additional Information
 Earth MOID = .540685 AU 
 T_jup = 3.794 
[ show covariance matrix ]

Ephemeris | Orbit Diagram | Orbital Elements | Physical Parameters | Discovery Circumstances ]

Physical Parameter Table
Parameter Symbol Value Units Sigma Reference Notes
absolute magnitude H 15.1 mag n/a MPO234875  

5867 (1988 RE)          Discovered 1988-Sep-11 by Phinney, J. at Palomar (675)
Reference: DISCOVERY.DBLast Updated: 2003-08-29
Ephemeris | Orbit Diagram | Orbital Elements | Physical Parameters | Discovery Circumstances ]
ABOUT SSD CREDITS/AWARDS PRIVACY/COPYRIGHT GLOSSARY LINKS
FirstGov 2014-Jul-24 12:11 UT
(server date/time)  
NASA Home Page
Site Manager:   Donald K. Yeomans
Webmaster  Alan B. Chamberlin